PROBA-1 1 26958U 01049B 26253.88566269 .00001254 00000+0 83955-4 0 9997 2 26958 97.9626 265.4416 0053985 191.3040 168.6979 15.07794593356535 CUTE-1 (CO-55) 1 27844U 03031E 26253.59778941 .00000190 00000+0 10131-3 0 9998 2 27844 98.6771 261.0963 0008526 301.7451 58.2897 14.24379248203833 CUBESAT XI-IV (CO-57) 1 27848U 03031J 26253.98070511 .00000149 00000+0 84574-4 0 9990 2 27848 98.6802 261.1179 0008686 321.3643 38.6913 14.23658424203588 APRIZESAT 4 1 35684U 09041D 26253.75767863 .00000438 00000+0 58716-4 0 9992 2 35684 98.1352 330.7581 0044116 45.3716 315.1082 14.83985219924055 APRIZESAT 3 1 35686U 09041F 26253.42594319 .00000804 00000+0 74046-4 0 9993 2 35686 98.2177 50.8078 0061933 144.8170 215.7164 14.96441644929121 PROBA-2 1 36037U 09059B 26253.45251274 .00000103 00000+0 34452-4 0 9995 2 36037 98.2481 75.6454 0013728 22.6544 337.5256 14.54892446893927 APRIZESAT 5 1 37792U 11044E 26253.73611043 .00000667 00000+0 91104-4 0 9998 2 37792 98.2471 189.2141 0053440 87.2163 273.5163 14.81201651811455 APRIZESAT 6 1 37793U 11044F 26253.71125053 .00000410 00000+0 65169-4 0 9996 2 37793 98.2285 165.9294 0043144 170.4773 251.7088 14.77017827809772 PROBA-V 1 39159U 13021A 26253.44430398 .00000038 00000+0 34903-4 0 9990 2 39159 98.3695 227.8829 0003061 234.9725 125.1168 14.23612322693243 APRIZESAT 7 1 39416U 13066A 26253.95076780 .00001039 00000+0 10779-3 0 9998 2 39416 97.7791 205.9810 0034233 287.9644 71.7844 14.91740311694017 APRIZESAT 8 1 39425U 13066K 26253.76142066 .00000798 00000+0 91920-4 0 9997 2 39425 97.8287 200.0674 0045978 6.2662 353.9120 14.87786544692396 BUGSAT-1 (TITA) 1 40014U 14033E 26253.90830034 .00001384 00000+0 74791-4 0 9992 2 40014 98.0430 351.5174 0026116 246.7932 113.0548 15.16329964668828 SAUDISAT 4 1 40016U 14033G 26253.39724000 .00000512 00000+0 73926-4 0 9993 2 40016 97.7710 36.6524 0045327 154.4730 205.8734 14.79634425658671 APRIZESAT 9 1 40018U 14033J 26253.31842832 .00000347 00000+0 58617-4 0 9997 2 40018 97.9179 24.4952 0064666 286.9866 72.4262 14.74301455656101 APRIZESAT 10 1 40019U 14033K 26253.63475211 .00000235 00000+0 44877-4 0 9995 2 40019 97.9756 18.7384 0078683 2.0006 358.1501 14.70963072654816 TECHDEMOSAT-1 (TDS-1) 1 40076U 14037H 26253.55660336 .00005969 00000+0 32957-3 0 9991 2 40076 98.3869 254.3353 0005711 355.8434 4.2746 15.14364317661149 TECHNOSAT 1 42829U 17042E 26253.67515902 .00001752 00000+0 12599-3 0 9995 2 42829 97.4389 48.1630 0018073 157.0974 203.1064 15.05379214499567 FLYING LAPTOP 1 42831U 17042G 26253.96042777 .00002272 00000+0 17937-3 0 9994 2 42831 97.4991 46.4135 0016075 188.8360 171.2585 15.01576837499324 HAWK-A 1 43765U 18099H 26253.70668733 .00004668 00000+0 18371-3 0 9996 2 43765 97.3832 304.8436 0033461 346.8832 13.1532 15.25613125426130 HAWK-B 1 43794U 18099AN 26253.70163552 .00004551 00000+0 19003-3 0 9991 2 43794 97.3882 304.0694 0031367 6.2588 353.9034 15.23700610426050 HAWK-C 1 43799U 18099AT 26253.74561804 .00005811 00000+0 20270-3 0 9990 2 43799 97.3809 306.2283 0038666 344.6332 15.3730 15.29292123426982 SALSAT 1 46495U 20068K 26253.60538708 .00005584 00000+0 18986-3 0 9995 2 46495 97.8883 261.9585 0009620 13.6942 346.4557 15.30869248328420 HAWK-2C 1 47502U 21006CT 26253.67237872 .00004651 00000+0 13671-3 0 9993 2 47502 97.2206 296.2974 0004984 247.2959 112.7758 15.35588571312610 HAWK-2A 1 47505U 21006CW 26253.60769493 .00004691 00000+0 13768-3 0 9999 2 47505 97.2248 296.9641 0004498 253.2626 106.8125 15.35630211312605 HAWK-2B 1 47508U 21006CZ 26253.72656256 .00005237 00000+0 15267-3 0 9990 2 47508 97.2119 295.2799 0004969 249.4965 110.5746 15.35788078312625 HAWK-3B 1 48931U 21059BE 26253.55978979 .00049473 00000+0 30496-3 0 9990 2 48931 97.6565 98.7990 0003676 23.8576 336.2858 15.77038613291277 HAWK-3C 1 48948U 21059BX 26253.55946779 .00049775 00000+0 30682-3 0 9993 2 48948 97.6658 104.6231 0003999 25.9503 334.1962 15.77035747291272 HAWK-3A 1 48957U 21059CG 26253.55935550 .00050450 00000+0 31095-3 0 9999 2 48957 97.6615 101.7624 0004141 25.9765 334.1707 15.77034411291273 HAWK-5C 1 52754U 22057Y 26253.94623979 .00017181 00000+0 26568-3 0 9993 2 52754 97.6668 59.3773 0004798 111.8688 248.3076 15.54148289239654 HAWK-5B 1 52756U 22057AA 26253.94607451 .00015794 00000+0 24441-3 0 9998 2 52756 97.6684 57.7415 0005511 107.3496 252.8360 15.54143125239650 HAWK-5A 1 52757U 22057AB 26253.94588246 .00016037 00000+0 24816-3 0 9996 2 52757 97.6678 58.5682 0005402 110.1459 250.0375 15.54140650239655 HAWK-6B 1 55324U 23011A 26253.93802359 .00003369 00000+0 14595-3 0 9990 2 55324 40.4971 211.6586 0003651 276.9880 83.0514 15.23571742200921 HAWK-6C 1 55326U 23011C 26253.34746022 .00003841 00000+0 16524-3 0 9990 2 55326 40.4959 211.9356 0004303 264.5809 95.4510 15.23571198200845 HAWK-6A 1 55327U 23011D 26253.60967389 .00003651 00000+0 15748-3 0 9997 2 55327 40.4969 212.0373 0003914 263.3953 96.6411 15.23571492200886 HAWK-7A 1 56191U 23054P 26253.65026354 .00004384 00000+0 16245-3 0 9994 2 56191 97.2561 138.7984 0004755 91.3968 268.7817 15.28134812190072 HAWK-7B 1 56193U 23054R 26253.65020166 .00004335 00000+0 16069-3 0 9991 2 56193 97.2586 137.0918 0003782 97.7366 262.4304 15.28136742190077 HAWK-7C 1 56200U 23054Y 26253.71555201 .00004283 00000+0 15879-3 0 9990 2 56200 97.2564 137.8980 0004102 89.6229 270.5481 15.28136968190081